Weather History for Benson, MN

Change the Weather History Date:

Saturday, December 29, 2012

  Actual Average Record
Temperature  
Mean Temperature 2 °F -  
Max Temperature 12 °F 19 °F 60 °F (1999)
Min Temperature -7 °F 4 °F -18 °F (2013)
Degree Days  
Heating Degree Days 62    
Moisture  
Dew Point 1 °F    
Average Humidity 88    
Maximum Humidity 100    
Minimum Humidity 78    
Precipitation  
Precipitation 0.00 in - - ()
Sea Level Pressure  
Sea Level Pressure 30.08 in    
Wind  
Wind Speed 1 mph (NW)    
Max Wind Speed 7 mph    
Max Gust Speed -    
Visibility 7 miles    
Events Fog , Snow    
Averages and records for this station are not official NWS values.
T = Trace of Precipitation, MM = Missing Value Source: NWS Daily Summary

Daily Weather History Graph

Daily Weather History Graph

Search for Another Location

Airport:

Trip Planner

Search our weather history database for the weather conditions in past years. The results will help you decide how hot, cold, wet, or windy it might be!

Date:

Astronomy

Dec. 29, 2012 Rise Set
Actual Time 8:01 AM CST 4:48 PM CST
Civil Twilight 7:27 AM CST 5:22 PM CST
Nautical Twilight 6:50 AM CST 5:59 PM CST
Astronomical Twilight 6:14 AM CST 6:35 PM CST
Moon 6:27 PM CST (12/29) 8:31 AM CST (12/29)
Length of Visible Light 9h 54m
Length of Day
8h 46m
Full, 98% of the Moon is Illuminated
Dec 29
Full
Jan 4
Last Quarter
Jan 11
New
Jan 18
First Quarter
Jan 26
Full

Hourly Weather History & Observations

Time (CST) Temp. Windchill Dew Point Humidity Pressure Visibility Wind Dir Wind Speed Gust Speed Precip Events Conditions
12:12 AM 10.4 °F - 8.6 °F 92% 30.05 in 1.0 mi Calm Calm - N/A Snow Light Snow
12:33 AM 10.4 °F 4.0 °F 8.6 °F 92% 30.05 in 1.0 mi NNW 3.5 mph - N/A Snow Light Snow
12:53 AM 10.4 °F 4.0 °F 10.4 °F 100% 30.05 in 1.2 mi NW 3.5 mph - N/A Snow Light Snow
1:12 AM 12.2 °F - 10.4 °F 92% 30.05 in 3.0 mi Calm Calm - N/A Snow Light Snow
1:33 AM 12.2 °F - 10.4 °F 92% 30.04 in 3.0 mi Calm Calm - N/A Snow Light Snow
1:52 AM 12.2 °F - 10.4 °F 92% 30.04 in 5.0 mi Calm Calm - N/A Snow Light Snow
2:12 AM 12.2 °F - 10.4 °F 92% 30.04 in 10.0 mi Calm Calm - N/A Snow Light Snow
2:33 AM 12.2 °F - 10.4 °F 92% 30.05 in 10.0 mi Calm Calm - N/A Snow Light Snow
2:52 AM 12.2 °F - 10.4 °F 92% 30.05 in 10.0 mi Calm Calm - N/A Snow Light Snow
3:12 AM 12.2 °F 6.1 °F 10.4 °F 92% 30.05 in 10.0 mi NNW 3.5 mph - N/A Snow Light Snow
3:33 AM 12.2 °F 6.1 °F 10.4 °F 92% 30.05 in 7.0 mi NW 3.5 mph - N/A Snow Light Snow
3:52 AM 12.2 °F - 10.4 °F 92% 30.05 in 7.0 mi Calm Calm - N/A Snow Light Snow
4:13 AM 12.2 °F - 10.4 °F 92% 30.05 in 7.0 mi Calm Calm - N/A Snow Light Snow
4:33 AM 12.2 °F - 10.4 °F 92% 30.04 in 7.0 mi Calm Calm - N/A Snow Light Snow
4:52 AM 10.4 °F - 8.6 °F 92% 30.05 in 10.0 mi Calm Calm - N/A Snow Light Snow
5:13 AM 10.4 °F 4.0 °F 8.6 °F 92% 30.05 in 7.0 mi West 3.5 mph - N/A Snow Light Snow
5:33 AM 8.6 °F - 6.8 °F 92% 30.05 in 5.0 mi Calm Calm - N/A Snow Light Snow
5:52 AM 8.6 °F - 6.8 °F 92% 30.05 in 5.0 mi Calm Calm - N/A Snow Light Snow
6:13 AM 8.6 °F 2.0 °F 6.8 °F 92% 30.05 in 5.0 mi WSW 3.5 mph - N/A Snow Light Snow
6:33 AM 6.8 °F - 3.2 °F 85% 30.05 in 7.0 mi Calm Calm - N/A Snow Light Snow
6:52 AM 5.0 °F - 1.4 °F 85% 30.05 in 5.0 mi Calm Calm - N/A Snow Light Snow
7:13 AM 3.2 °F - 1.4 °F 92% 30.05 in 5.0 mi Calm Calm - N/A   Overcast
7:32 AM 1.4 °F - -2.2 °F 85% 30.06 in 5.0 mi Calm Calm - N/A   Overcast
7:53 AM -0.4 °F - -2.2 °F 92% 30.06 in 4.0 mi Calm Calm - N/A   Overcast
8:13 AM -2.2 °F - -5.8 °F 85% 30.06 in 1.5 mi Calm Calm - N/A   Mostly Cloudy
8:32 AM -2.2 °F - -7.6 °F 78% 30.06 in 0.2 mi Calm Calm - N/A Fog Light Freezing Fog
8:52 AM -4.0 °F - -7.6 °F 85% 30.06 in 0.2 mi Calm Calm - N/A Fog Light Freezing Fog
9:13 AM -5.8 °F - -9.4 °F 84% 30.07 in 0.2 mi Calm Calm - N/A Fog Light Freezing Fog
9:32 AM -2.2 °F - -7.6 °F 78% 30.06 in 0.2 mi Calm Calm - N/A Fog Light Freezing Fog
9:53 AM -2.2 °F - -5.8 °F 85% 30.07 in 2.5 mi Calm Calm - N/A   Scattered Clouds
10:13 AM 1.4 °F - -0.4 °F 92% 30.08 in 4.0 mi Calm Calm - N/A   Mostly Cloudy
10:32 AM 3.2 °F - -0.4 °F 85% 30.08 in 5.0 mi Calm Calm - N/A   Overcast
10:53 AM 3.2 °F - 1.4 °F 92% 30.09 in 5.0 mi Calm Calm - N/A   Overcast
11:13 AM 3.2 °F - 1.4 °F 92% 30.09 in 7.0 mi Calm Calm - N/A   Overcast
11:32 AM 6.8 °F - 3.2 °F 85% 30.08 in 7.0 mi Calm Calm - N/A   Overcast
11:53 AM 6.8 °F - 3.2 °F 85% 30.08 in 7.0 mi Calm Calm - N/A   Mostly Cloudy
12:12 PM 6.8 °F - 3.2 °F 85% 30.07 in 7.0 mi Calm Calm - N/A   Scattered Clouds
12:32 PM 8.6 °F - 5.0 °F 85% 30.06 in 7.0 mi Calm Calm - N/A   Clear
12:53 PM 8.6 °F 0.1 °F 5.0 °F 85% 30.07 in 10.0 mi NNW 4.6 mph - N/A Snow Light Snow
1:13 PM 8.6 °F -2.6 °F 6.8 °F 92% 30.06 in 10.0 mi North 6.9 mph - N/A   Clear
1:33 PM 8.6 °F 0.1 °F 5.0 °F 85% 30.06 in 10.0 mi NW 4.6 mph - N/A   Clear
1:53 PM 8.6 °F 0.1 °F 5.0 °F 85% 30.06 in 10.0 mi NW 4.6 mph - N/A   Clear
2:33 PM 6.8 °F -0.1 °F 5.0 °F 92% 30.07 in 10.0 mi WNW 3.5 mph - N/A   Clear
2:53 PM 6.8 °F -0.1 °F 3.2 °F 85% 30.07 in 10.0 mi NW 3.5 mph - N/A   Scattered Clouds
3:12 PM 6.8 °F -2.0 °F 3.2 °F 85% 30.08 in 10.0 mi NW 4.6 mph - N/A   Scattered Clouds
3:33 PM 6.8 °F -2.0 °F 3.2 °F 85% 30.08 in 10.0 mi NW 4.6 mph - N/A   Clear
3:53 PM 5.0 °F - 1.4 °F 85% 30.07 in 10.0 mi Calm Calm - N/A   Clear
4:12 PM 3.2 °F -4.2 °F 1.4 °F 92% 30.09 in 10.0 mi NW 3.5 mph - N/A   Clear
4:33 PM 3.2 °F -6.2 °F 1.4 °F 92% 30.09 in 10.0 mi NW 4.6 mph - N/A   Clear
4:53 PM 1.4 °F -9.9 °F -2.2 °F 85% 30.10 in 10.0 mi WNW 5.8 mph - N/A   Clear
5:12 PM 1.4 °F -8.3 °F -0.4 °F 92% 30.10 in 10.0 mi West 4.6 mph - N/A   Clear
5:33 PM 1.4 °F -9.9 °F -2.2 °F 85% 30.10 in 10.0 mi West 5.8 mph - N/A   Clear
5:53 PM 1.4 °F -8.3 °F -2.2 °F 85% 30.10 in 10.0 mi WNW 4.6 mph - N/A   Clear
6:12 PM -2.2 °F - -7.6 °F 78% 30.10 in 10.0 mi Calm Calm - N/A   Clear
6:33 PM -4.0 °F - -7.6 °F 85% 30.10 in 10.0 mi Calm Calm - N/A   Clear
7:12 PM -0.4 °F - -4.0 °F 85% 30.10 in 7.0 mi Calm Calm - N/A   Clear
7:33 PM -2.2 °F - -5.8 °F 85% 30.11 in 10.0 mi Calm Calm - N/A   Clear
7:53 PM -4.0 °F - -7.6 °F 85% 30.10 in 7.0 mi Calm Calm - N/A   Clear
8:12 PM -5.8 °F - -9.4 °F 84% 30.11 in 5.0 mi Calm Calm - N/A   Clear
8:33 PM -5.8 °F - -9.4 °F 84% 30.10 in 7.0 mi Calm Calm - N/A   Clear
8:52 PM -5.8 °F - -7.6 °F 92% 30.11 in 7.0 mi Calm Calm - N/A   Clear
9:12 PM -4.0 °F - -7.6 °F 85% 30.12 in 7.0 mi Calm Calm - N/A   Clear
9:33 PM -5.8 °F - -9.4 °F 84% 30.13 in 7.0 mi Calm Calm - N/A   Clear
9:52 PM -5.8 °F - -9.4 °F 84% 30.12 in 10.0 mi Calm Calm - N/A   Clear
10:12 PM -5.8 °F - -9.4 °F 84% 30.12 in 10.0 mi Calm Calm - N/A   Clear
10:33 PM -5.8 °F - -9.4 °F 84% 30.12 in 10.0 mi Calm Calm - N/A   Clear
10:52 PM -5.8 °F - -9.4 °F 84% 30.12 in 7.0 mi Calm Calm - N/A   Clear
11:13 PM -5.8 °F - -9.4 °F 84% 30.12 in 10.0 mi Calm Calm - N/A   Clear
11:33 PM -7.6 °F - -11.2 °F 84% 30.12 in 10.0 mi Calm Calm - N/A   Clear
11:52 PM -7.6 °F - -11.2 °F 84% 30.11 in 10.0 mi Calm Calm - N/A   Clear